Flag for Germany Weather past 2 weeks in Norderstedt, Schleswig-Holstein, Germany

Now
68 °F

Passing clouds.


Feels Like: 68 °F
Forecast: 49 / 68 °F
Wind: 12 mph from Northeast

Location: Hamburg-Fuhlsbuettel

Current Time: Sep 2, 2014 at 5:52:32 PM

Latest Report: Sep 2, 2014 at 5:20 PM


Visibility: N/A

Pressure: 30.21 "Hg

Humidity: 64%

Dew point: 55 °F

Location of NorderstedtLocation

Historic Weather in Norderstedt — Graph

°F

Norderstedt temperature yesterday

Maximum temperature yesterday: 66 °F (at 5:20 PM)
Minimum temperature yesterday: 48 °F (at 2:20 AM)
Average temperature yesterday: 59 °F

Past Weeks' High & Low Weather Summary

 TemperatureHumidityPressure
High73 °F (Aug 28, 2:20 PM)100% (Aug 19, 1:20 AM)30.21 "Hg (Aug 19, 1:20 AM)
Low39 °F (Aug 26, 4:50 AM)33% (Aug 28, 2:50 PM)29.53 "Hg (Aug 18, 4:20 PM)
Average57 °F82%29.90 "Hg
* Reported Aug 18 4:20 PM — Sep 2 4:50 PM, Norderstedt, Weather by CustomWeather, © 2014

Note: Actual official high and low records may vary slightly from our data, if they occured in-between our weather recording intervals... More about our weather records

Advertising

Norderstedt weather history for previous 24 hours

 ConditionsComfort  
Time TempWeatherWind HumidityBarometerVisibility
4:50 PM
Sep 2
68 °FPassing clouds.12 mph64%30.21 "HgN/A
4:20 PM68 °FPassing clouds.9 mph64%30.21 "HgN/A
3:50 PM70 °FPassing clouds.7 mph57%30.21 "HgN/A
3:20 PM70 °FPassing clouds.9 mph53%30.21 "HgN/A
2:50 PM70 °FPassing clouds.10 mph57%30.21 "HgN/A
2:20 PM68 °FPassing clouds.9 mph56%30.21 "HgN/A
1:50 PM68 °FPassing clouds.10 mph56%30.21 "HgN/A
1:20 PM68 °FScattered clouds.10 mph56%30.21 "HgN/A
12:50 PM66 °FScattered clouds.12 mph64%30.21 "HgN/A
12:20 PM68 °FScattered clouds.10 mph64%30.21 "HgN/A
11:50 AM64 °FPassing clouds.10 mph68%30.21 "HgN/A
11:20 AM64 °FPassing clouds.12 mph68%30.18 "HgN/A
10:50 AM64 °FPassing clouds.13 mph73%30.21 "HgN/A
10:20 AM64 °FPassing clouds.13 mph73%30.18 "HgN/A
9:50 AM63 °FPassing clouds.12 mph77%30.18 "HgN/A
9:20 AM61 °FPassing clouds.12 mph83%30.18 "HgN/A
8:50 AM61 °FPassing clouds.9 mph83%30.15 "HgN/A
8:20 AM59 °FPassing clouds.8 mph88%30.15 "HgN/A
7:50 AM59 °FPassing clouds.8 mph88%30.15 "HgN/A
7:20 AM59 °FPassing clouds.7 mph88%30.15 "HgN/A
6:50 AM59 °FPartly cloudy.6 mph94%30.12 "Hg6 mi
6:20 AM59 °FPassing clouds.5 mph94%30.12 "Hg5 mi
5:50 AM59 °FPassing clouds.6 mph100%30.12 "Hg5 mi
5:20 AM59 °FPassing clouds.7 mph100%30.12 "Hg5 mi
4:50 AM61 °FLow clouds.5 mph94%30.12 "Hg4 mi
4:20 AM61 °FLow clouds.6 mph94%30.09 "Hg4 mi
3:50 AM61 °FLow clouds.7 mph94%30.09 "Hg4 mi
3:20 AM61 °FLow clouds.7 mph94%30.09 "Hg4 mi
2:50 AM61 °FLow clouds.6 mph94%30.09 "Hg4 mi
2:20 AM61 °FFog.7 mph100%30.09 "Hg2 mi
1:50 AM61 °FFog.7 mph100%30.09 "Hg2 mi
1:20 AM61 °FDrizzle. Fog.6 mph100%30.09 "Hg2 mi
12:50 AM61 °FFog.6 mph100%30.09 "Hg3 mi
12:20 AM61 °FFog.3 mph100%30.09 "Hg3 mi
11:50 PM
Sep 1
61 °FFog.5 mph100%30.09 "Hg3 mi
11:20 PM61 °FPassing clouds.3 mph100%30.07 "Hg4 mi
10:20 PM61 °FPassing clouds.2 mph100%30.07 "Hg5 mi
9:50 PM61 °FPassing clouds.2 mph100%30.07 "HgN/A
9:20 PM61 °FScattered showers. Passing clouds.3 mph100%30.07 "Hg5 mi
8:50 PM61 °FRain showers. Broken clouds.5 mph100%30.07 "Hg3 mi
8:20 PM61 °FRain showers. Partly sunny.12 mph94%30.07 "Hg4 mi
7:50 PM64 °FPartly sunny.7 mph88%30.04 "HgN/A
7:20 PM64 °FBroken clouds.6 mph88%30.04 "HgN/A
6:50 PM64 °FBroken clouds.6 mph88%30.04 "HgN/A
6:20 PM66 °FBroken clouds.8 mph83%30.04 "HgN/A
5:50 PM64 °FBroken clouds.8 mph88%30.04 "HgN/A
5:20 PM66 °FPartly sunny.7 mph83%30.04 "HgN/A
Weather by CustomWeather, © 2014

See weather overviewHow to use our weather pages